Regional Weather Roundup
Issued by NWS State College, PA

Home | Current Version | Previous Version | Text Only | Print | Product List | Glossary On
Versions: 1 2 3 4 5 6 7 8 9 10 11 12 13 14 15 16 17 18 19 20 21 22 23 24 25 26 27 28 29 30 31 32 33 34 35 36 37 38 39 40 41 42 43 44 45 46 47 48 49 50
000
ASUS41 KCTP 191703
RWRCTP

REGIONAL WEATHER ROUNDUP
NATIONAL WEATHER SERVICE STATE COLLEGE PA
100 PM EDT SUN APR 19 2015

Note: "fair" indicates few or no clouds below 12,000 feet with no
significant weather and/or obstructions to visibility.

* = STATION THAT DOES NOT REPORT PRECIPITATION /E.G. RAIN...SNOW...ETC/
    THUNDER OR FOG.

PAZ002>004-007>009-013>016-020>023-029>032-191800-
WESTERN PENNSYLVANIA

CITY           SKY/WX    TMP DP  RH WIND       PRES   REMARKS
ERIE           MOSUNNY   55  36  48 NE13      29.97F
MEADVILLE      SUNNY     68  30  24 SE9G17    29.96F
FRANKLIN*      SUNNY     66  32  28 E15       30.00F
NEW CASTLE     FAIR      72  36  26 E13G20    29.95F
BEAVER COUNTY  SUNNY     70  36  28 SE10G24   29.95F
BUTLER*        PTSUNNY   70  36  28 SE18      29.99F
PITTSBURGH INT CLOUDY    71  34  25 SE17G26   29.95F
PITTSBURGH     PTSUNNY   69  31  24 SE18G25   29.96F
INDIANA*       SUNNY     68  34  28 SE12G22   30.05F
LATROBE        CLOUDY    68  34  28 SE9       30.02F
WASHINGTON CO* PTSUNNY   70  39  32 E23G32    29.97F
$$

PAZ004>006-010>012-017>019-024>028-033>037-041-042-045-046-049>053-191800-
CENTRAL PENNSYLVANIA

CITY           SKY/WX    TMP DP  RH WIND       PRES   REMARKS
BRADFORD       SUNNY     62  25  24 SE16G23   30.06F
DUBOIS         MOSUNNY   67  25  20 SE16G25   30.04F
CLEARFIELD     MOSUNNY   67  27  22 VRB7G18   30.08F
JOHNSTOWN      PTSUNNY   62  32  32 SE18G28   30.04F
ALTOONA        MOSUNNY   63  33  32 SE14      30.08F
STATE COLLEGE  SUNNY     63  30  29 SE13      30.11F
WILLIAMSPORT   SUNNY     66  26  22 E13G20    30.13F
SELINSGROVE    SUNNY     65  35  33 SE12      30.14F
FT INDIANTOWN  MOSUNNY   64  32  29 SE13G20   30.15F
CAPITAL CITY   MOSUNNY   67  36  31 SE13G20   30.15F
HARRISBURG     PTSUNNY   66  38  35 SE14      30.15F
YORK           MOSUNNY   65  37  35 SE12G20   30.15F
$$

PAZ038>040-043-044-047-048-054-055-060>062-067>071-191800-
EASTERN PENNSYLVANIA

CITY           SKY/WX    TMP DP  RH WIND       PRES   REMARKS
SCRANTON       MOSUNNY   65  20  17 S9        30.16F
MOUNT POCONO   MOSUNNY   57  23  26 SE13      30.20F
ALLENTOWN      SUNNY     65  32  29 E10       30.20F
QUAKERTOWN*    SUNNY     63  32  31 SE9       30.20F
READING        SUNNY     65  31  28 SE14G20   30.16F
LANCASTER      MOSUNNY   63  35  35 SE13      30.16F
COATESVILLE    SUNNY     63  37  39 SE8G20    30.19F
POTTSTOWN      SUNNY     63  36  36 E10G16    30.21F
BLUE BELL      SUNNY     64  39  39 E7        30.20F
DOYLESTOWN     SUNNY     60  34  37 VRB3      30.20F
WILLOW GROVE   NOT AVBL
NORTH PHILA    SUNNY     63  35  35 SE16G23   30.23F
PHILADELPHIA   PTSUNNY   65  38  36 E14       30.21F
$$


USA.gov is the U.S. government's official web portal to all federal, state and local government web resources and services.